DW3637 Weather Reports


Display with metric or nautical units.
time (UTC)temp
F
wind
direction
speed
MPH
gust
MPH
rain 1hr
in
rain 24hr
in
rain mn
in
humidity
%
barometer
mb
20260509111517 43 0.0 2.0 0.02 0.07 0.07 91 1014.1
20260509110517 43 0.0 0.0 0.03 0.07 0.07 91 1014.1
20260509105520 43 0.0 1.0 0.04 0.07 0.07 91 1014.2
20260509104602 43 0.0 0.0 0.03 0.06 0.06 91 1014.4
20260509103516 43 0.0 0.0 0.03 0.06 0.06 90 1014.4
20260509102517 43 0.0 0.0 0.03 0.05 0.05 90 1014.2
20260509101516 43 0.0 0.0 0.04 0.05 0.05 89 1014.0
20260509100537 43 0.0 0.0 0.04 0.04 0.04 89 1014.0
20260509095519 43 0.0 1.0 0.03 0.03 0.03 89 1013.8
20260509094516 43 0.0 1.0 0.03 0.03 0.03 88 1013.6
20260509093516 43 0.0 1.0 0.03 0.03 0.03 87 1013.6
20260509092516 43 0.0 1.0 0.02 0.02 0.02 87 1013.5
20260509091516 43 0.0 1.0 0.01 0.01 0.01 86 1013.5
20260509090516 43 0.0 0.0 0.00 0.00 0.00 86 1013.6
20260509085517 43 0.0 1.0 0.00 0.00 0.00 85 1013.4
20260509084538 43 0.0 1.0 0.00 0.00 0.00 85 1013.3
20260509083516 43 0.0 0.0 0.00 0.00 0.00 85 1013.2
20260509082517 43 0.0 1.0 0.00 0.00 0.00 85 1013.0
20260509081536 43 0.0 1.0 0.00 0.00 0.00 86 1012.9
20260509080517 43 0.0 2.0 0.00 0.00 0.00 86 1012.8
20260509075536 43 0.0 1.0 0.00 0.00 0.00 86 1012.8
20260509074516 43 0.0 0.0 0.00 0.00 0.00 86 1012.9
20260509073517 42 0.0 1.0 0.00 0.00 0.00 87 1012.8
20260509072516 42 0.0 1.0 0.00 0.00 0.00 87 1013.0
20260509071522 42 0.0 0.0 0.00 0.00 0.00 87 1013.0
20260509070516 41 0.0 0.0 0.00 0.00 0.00 87 1012.9
20260509065519 41 0.0 0.0 0.00 0.00 0.00 87 1012.9
20260509064517 41 0.0 0.0 0.00 0.00 0.00 87 1013.1
20260509063516 41 0.0 1.0 0.00 0.00 0.00 87 1013.2
20260509062516 41 0.0 1.0 0.00 0.00 0.00 87 1013.2
20260509061536 40 0.0 0.0 0.00 0.00 0.00 86 1013.3
20260509060516 41 0.0 0.0 0.00 0.00 0.00 86 1013.3
20260509055520 41 0.0 0.0 0.00 0.00 0.00 86 1013.4
20260509054516 41 0.0 0.0 0.00 0.00 0.00 86 1013.3
20260509053516 40 0.0 0.0 0.00 0.00 0.00 86 1013.3
20260509052537 39 0.0 0.0 0.00 0.00 0.00 85 1013.4
20260509051516 39 0.0 0.0 0.00 0.00 0.00 84 1013.4
20260509050517 40 0.0 0.0 0.00 0.00 0.00 83 1013.2
20260509045516 40 0.0 0.0 0.00 0.00 0.00 83 1012.9
20260509044516 41 0.0 0.0 0.00 0.00 0.00 82 1012.9
20260509043521 41 0.0 0.0 0.00 0.00 0.00 82 1012.9
20260509042516 41 0.0 0.0 0.00 0.00 0.00 81 1012.9
20260509041521 41 0.0 0.0 0.00 0.00 0.00 80 1012.9
20260509040516 42 0.0 0.0 0.00 0.00 0.00 80 1012.8
20260509035522 42 0.0 0.0 0.00 0.00 0.00 80 1012.9
20260509034516 42 0.0 0.0 0.00 0.00 0.00 79 1012.9
20260509033516 42 0.0 0.0 0.00 0.00 0.00 77 1012.8
20260509032516 43 0.0 0.0 0.00 0.00 0.00 77 1012.7
20260509031516 43 0.0 0.0 0.00 0.00 0.00 76 1012.8
20260509030523 43 0.0 0.0 0.00 0.00 0.00 75 1012.6
20260509025518 43 0.0 0.0 0.00 0.00 0.00 74 1012.6
20260509024516 43 0.0 0.0 0.00 0.00 0.00 73 1012.7
20260509023516 44 0.0 0.0 0.00 0.00 0.00 73 1012.7
20260509022516 44 0.0 0.0 0.00 0.00 0.00 72 1012.5
20260509021516 44 0.0 0.0 0.00 0.00 0.00 71 1012.4
20260509020516 44 0.0 0.0 0.00 0.00 0.00 71 1012.3
20260509015524 45 0.0 0.0 0.00 0.00 0.00 71 1012.3
20260509014536 45 0.0 0.0 0.00 0.00 0.00 68 1012.3
20260509013536 46 0.0 0.0 0.00 0.00 0.00 67 1012.1
20260509012517 46 0.0 0.0 0.00 0.00 0.00 67 1011.9
20260509011517 47 0.0 0.0 0.00 0.00 0.00 66 1011.8
20260509010536 48 0.0 0.0 0.00 0.00 0.00 65 1011.5
20260509005519 48 0.0 0.0 0.00 0.00 0.00 63 1011.4
20260509004516 49 0.0 0.0 0.00 0.00 0.00 61 1011.3
20260509003522 50 0.0 0.0 0.00 0.00 0.00 59 1011.1
20260509002516 51 0.0 0.0 0.00 0.00 0.00 57 1011.0
20260509001517 52 0.0 0.0 0.00 0.00 0.00 53 1010.8
20260509000536 53 0.0 1.0 0.00 0.00 0.00 51 1010.8
20260508235519 54 0.0 1.0 0.00 0.00 0.00 50 1010.7
20260508234517 54 0.0 1.0 0.00 0.00 0.00 49 1010.5
20260508233516 55 0.0 2.0 0.00 0.00 0.00 49 1010.3
20260508232516 55 0.0 1.0 0.00 0.00 0.00 49 1010.1
20260508231516 56 0.0 4.0 0.00 0.00 0.00 48 1010.0
20260508230516 57 23 1.0 3.0 0.00 0.00 0.00 46 1010.1
20260508225520 58 0 1.0 5.0 0.00 0.00 0.00 45 1010.0
20260508224516 57 315 1.0 5.0 0.00 0.00 0.00 45 1009.9
20260508223516 57 338 2.0 5.0 0.00 0.00 0.00 44 1009.8
20260508222516 58 338 3.0 10.0 0.00 0.00 0.00 44 1009.7
20260508221516 59 293 3.0 9.0 0.00 0.00 0.00 45 1009.6
20260508220516 59 315 1.0 7.0 0.00 0.00 0.00 45 1009.6
20260508215516 59 315 2.0 9.0 0.00 0.00 0.00 44 1009.7
20260508214516 59 315 3.0 8.0 0.00 0.00 0.00 46 1009.7
20260508213516 59 0 2.0 5.0 0.00 0.00 0.00 45 1009.7
20260508212526 59 315 3.0 9.0 0.00 0.00 0.00 46 1009.7
20260508211516 58 270 3.0 8.0 0.00 0.00 0.00 46 1009.8
20260508210516 57 270 4.0 13.0 0.00 0.00 0.00 48 1009.7
20260508205516 58 293 4.0 8.0 0.00 0.00 0.00 48 1009.8
20260508204522 58 338 3.0 8.0 0.00 0.00 0.00 49 1009.8
20260508203516 57 338 4.0 18.0 0.00 0.00 0.00 49 1009.9
20260508202516 57 315 3.0 12.0 0.00 0.00 0.00 50 1009.9
20260508201516 58 293 3.0 11.0 0.00 0.00 0.00 49 1010.0
20260508200516 58 23 3.0 7.0 0.00 0.00 0.00 49 1010.0
20260508195515 58 315 2.0 7.0 0.00 0.00 0.00 48 1009.9
20260508194516 58 315 3.0 10.0 0.00 0.00 0.00 49 1010.0
20260508193516 57 315 2.0 6.0 0.00 0.00 0.00 50 1010.0
20260508192515 55 23 3.0 8.0 0.00 0.00 0.00 51 1010.0
20260508191515 54 270 3.0 9.0 0.00 0.00 0.00 50 1010.1
20260508190516 54 315 1.0 5.0 0.00 0.00 0.00 51 1010.0
20260508185516 54 293 3.0 8.0 0.00 0.00 0.00 50 1009.9
20260508184517 54 293 3.0 9.0 0.00 0.00 0.00 51 1009.9
20260508183517 55 315 2.0 7.0 0.00 0.00 0.00 51 1009.8
20260508182537 55 315 2.0 10.0 0.00 0.00 0.00 50 1009.8
20260508181518 55 315 1.0 5.0 0.00 0.00 0.00 51 1009.8
20260508180518 55 315 5.0 11.0 0.00 0.00 0.00 48 1009.8
20260508175517 56 293 3.0 9.0 0.00 0.00 0.00 47 1009.7
20260508174517 57 315 4.0 10.0 0.00 0.00 0.00 45 1009.7
20260508173517 57 23 2.0 7.0 0.00 0.00 0.00 45 1009.4
20260508172518 57 0 3.0 9.0 0.00 0.00 0.00 43 1009.3
20260508171517 58 270 3.0 13.0 0.00 0.00 0.00 39 1009.0
20260508170537 59 293 2.0 7.0 0.00 0.00 0.00 40 1008.9
20260508165515 59 23 1.0 5.0 0.00 0.00 0.00 40 1008.8
20260508164518 59 248 3.0 6.0 0.00 0.00 0.00 39 1008.9
20260508163526 60 248 1.0 7.0 0.00 0.00 0.00 41 1008.9
20260508162517 59 293 2.0 7.0 0.00 0.00 0.00 42 1009.1
20260508161518 58 293 2.0 7.0 0.00 0.00 0.00 42 1009.3
20260508160517 58 248 1.0 5.0 0.00 0.00 0.00 42 1009.4
20260508155537 58 293 3.0 8.0 0.00 0.00 0.00 43 1009.6
20260508154537 58 315 3.0 9.0 0.00 0.00 0.00 42 1009.7
20260508153517 57 293 1.0 4.0 0.00 0.00 0.00 46 1009.8
20260508152537 56 248 1.0 3.0 0.00 0.00 0.00 46 1009.9
20260508151537 56 248 3.0 7.0 0.00 0.00 0.00 46 1010.1
20260508150517 57 293 2.0 8.0 0.00 0.00 0.00 46 1010.0
20260508145518 57 23 1.0 6.0 0.00 0.00 0.00 45 1009.9
20260508144520 57 248 1.0 3.0 0.00 0.00 0.00 48 1010.0
20260508143519 56 315 3.0 6.0 0.00 0.00 0.00 45 1010.1
20260508142517 56 270 2.0 7.0 0.00 0.00 0.00 46 1010.1
20260508141537 56 0 1.0 4.0 0.00 0.00 0.00 47 1010.0
20260508140517 56 248 1.0 4.0 0.00 0.00 0.00 47 1010.1
20260508135517 54 45 2.0 6.0 0.00 0.00 0.00 48 1010.1
20260508134517 54 315 2.0 8.0 0.00 0.00 0.00 50 1010.4
20260508133537 54 315 2.0 8.0 0.00 0.00 0.00 48 1010.5
20260508132517 54 45 3.0 7.0 0.00 0.00 0.00 50 1010.7
20260508131516 53 315 2.0 5.0 0.00 0.00 0.00 51 1010.8
20260508130517 53 338 2.0 6.0 0.00 0.00 0.00 51 1010.8
20260508125519 53 338 2.0 6.0 0.00 0.00 0.00 51 1010.8
20260508124517 52 315 3.0 15.0 0.00 0.00 0.00 51 1010.8
20260508123537 51 315 2.0 10.0 0.00 0.00 0.00 51 1010.7
20260508122519 51 270 4.0 11.0 0.00 0.00 0.00 50 1010.8
20260508121517 51 23 1.0 5.0 0.00 0.00 0.00 52 1010.8
20260508120517 50 315 3.0 11.0 0.00 0.00 0.00 51 1010.7
20260508115519 50 315 2.0 10.0 0.00 0.00 0.00 52 1010.8
20260508114517 49 293 2.0 6.0 0.00 0.00 0.00 55 1010.7
20260508113518 48 293 1.0 4.0 0.00 0.00 0.00 58 1010.7
20260508112517 47 0.0 4.0 0.00 0.00 0.00 60 1010.6